Flag for Norway Weather past 2 weeks in Trondheim, Norway

Now
41 °F

Fog.


Feels Like: 38 °F
Forecast: 44 / 51 °F
Wind: 5 mph from Southeast

Location: Trondheim / Vaernes

Current Time: Oct 25, 2014 at 11:27:40 AM

Latest Report: Oct 25, 2014 at 10:50 AM


Visibility: N/A

Pressure: 29.59 "Hg

Humidity: 100%

Dew point: 41 °F

Location of TrondheimLocation

Historic Weather in Trondheim — Graph

°F

Trondheim temperature yesterday

Maximum temperature yesterday: 57 °F (at 3:20 PM)
Minimum temperature yesterday: 45 °F (at 11:20 PM)
Average temperature yesterday: 51 °F

Past Weeks' High & Low Weather Summary

 TemperatureHumidityPressure
High57 °F (Oct 24, 3:20 PM)100% (Oct 11, 7:20 AM)30.07 "Hg (Oct 11, 7:20 AM)
Low28 °F (Oct 18, 4:50 AM)46% (Oct 17, 3:20 PM)29.27 "Hg (Oct 19, 11:20 PM)
Average44 °F78%29.77 "Hg
* Reported Oct 10 10:20 AM — Oct 25 10:20 AM, Trondheim, Weather by CustomWeather, © 2014

Note: Actual official high and low records may vary slightly from our data, if they occured in-between our weather recording intervals... More about our weather records

Advertising

Trondheim weather history for previous 24 hours

 ConditionsComfort  
Time TempWeatherWind HumidityBarometerVisibility
10:20 AM
Oct 25
37 °FFog.5 mph100%29.59 "HgN/A
9:50 AM39 °FPassing clouds.2 mph100%29.59 "HgN/A
9:20 AM39 °FPartly cloudy.1 mph100%29.59 "HgN/A
8:50 AM41 °FPartly cloudy.5 mph93%29.59 "HgN/A
8:20 AM41 °FPassing clouds.9 mph100%29.59 "HgN/A
7:50 AM41 °FPassing clouds.5 mph93%29.59 "HgN/A
7:20 AM39 °FSleet. Passing clouds.6 mph100%29.59 "HgN/A
6:50 AM39 °FSleet. Passing clouds.5 mph100%29.59 "HgN/A
6:20 AM39 °FSleet. Passing clouds.7 mph93%29.59 "HgN/A
5:50 AM39 °FClear.3 mph100%29.59 "Hg10 mi
5:20 AM39 °FClear.6 mph100%29.59 "Hg10 mi
4:50 AM39 °FClear.1 mph100%29.59 "Hg10 mi
4:20 AM41 °FClear.1 mph93%29.56 "Hg10 mi
3:50 AM41 °FClear.2 mph93%29.56 "Hg10 mi
3:20 AM41 °FClear.3 mph100%29.59 "Hg10 mi
2:50 AM41 °FClear.2 mph100%29.59 "Hg10 mi
1:50 AM43 °FPassing clouds.7 mph93%29.59 "HgN/A
1:20 AM43 °FPassing clouds.9 mph100%29.62 "HgN/A
12:50 AM43 °FSleet. Passing clouds.8 mph100%29.62 "HgN/A
11:50 PM
Oct 24
45 °FPassing clouds.3 mph93%29.65 "HgN/A
11:20 PM45 °FPassing clouds.1 mph100%29.65 "HgN/A
10:50 PM46 °FPassing clouds.7 mph93%29.65 "HgN/A
10:20 PM48 °FPassing clouds.1 mph87%29.65 "HgN/A
9:50 PM48 °FPassing clouds.5 mph87%29.65 "HgN/A
9:20 PM48 °FPartly cloudy.7 mph87%29.65 "HgN/A
8:50 PM48 °FPassing clouds.8 mph94%29.65 "HgN/A
8:20 PM48 °FPartly cloudy.7 mph87%29.65 "HgN/A
7:50 PM50 °FLight rain. Passing clouds.5 mph82%29.65 "HgN/A
7:20 PM52 °FPassing clouds.8 mph77%29.65 "HgN/A
6:50 PM52 °FPartly cloudy.9 mph77%29.65 "HgN/A
6:20 PM52 °FBroken clouds.9 mph77%29.65 "HgN/A
5:50 PM52 °FPartly sunny.12 mph77%29.65 "HgN/A
5:20 PM52 °FPartly sunny.12 mph77%29.62 "HgN/A
4:50 PM52 °FPartly sunny.9 mph82%29.62 "HgN/A
4:20 PM55 °FBroken clouds.10 mph67%29.62 "HgN/A
3:50 PM57 °FSunny.7 mph63%29.62 "Hg10 mi
3:20 PM57 °FPassing clouds.6 mph63%29.62 "HgN/A
2:50 PM55 °FClear.5 mph63%29.62 "HgN/A
2:20 PM55 °FPassing clouds.3 mph63%29.62 "HgN/A
1:50 PM55 °FSunny.5 mph63%29.62 "Hg10 mi
1:20 PM55 °FPassing clouds.9 mph63%29.62 "HgN/A
12:50 PM55 °FPassing clouds.3 mph63%29.62 "HgN/A
12:20 PM55 °FSunny.3 mph63%29.62 "Hg10 mi
11:50 AM55 °FSunny.18 mph63%29.62 "Hg10 mi
11:20 AM55 °FPassing clouds.17 mph63%29.59 "HgN/A
Weather by CustomWeather, © 2014

See weather overviewHow to use our weather pages